contact:dominique.lefevre@mio.osupytheas.fr, maurice.libes@osupytheas.fr, didier.mallarino@osupytheas.fr
Project:EMSO http://www.emso-fr.org/EMSO-France
Depth: 2436.0 m
Title:EMSO Ligure Ouest : Data MII capteur CSTAR
DateTime,Latitude,Longitude,Instrument_Serial,Reference_Counts,Signal_Counts,Corrected_Signal_raw_counts,Calculated_Beam_c_inverse_meters,Internal_thermistor_counts
DateTime,Latitude,Longitude,Instrument_Serial,Reference_Counts,Signal_Counts,Corrected_Signal_raw_counts,Calculated_Beam_c_inverse_meters,Internal_thermistor_counts
2022-04-07T00:01:26,42.805,6.029,CST-1368DR,4822,5669,12543,0.877,551
2022-04-07T00:04:27,42.805,6.029,CST-1368DR,4822,5675,12557,0.872,551
2022-04-07T00:07:29,42.805,6.029,CST-1368DR,4822,5676,12559,0.871,551
2022-04-07T00:10:30,42.805,6.029,CST-1368DR,4822,5680,12568,0.869,551
2022-04-07T00:13:32,42.805,6.029,CST-1368DR,4822,5673,12553,0.873,551
2022-04-07T00:16:34,42.805,6.029,CST-1368DR,4822,5670,12546,0.876,551
2022-04-07T00:19:35,42.805,6.029,CST-1368DR,4822,5665,12534,0.879,550
2022-04-07T00:22:37,42.805,6.029,CST-1368DR,4822,5671,12547,0.875,550
2022-04-07T00:25:38,42.805,6.029,CST-1368DR,4822,5667,12539,0.878,551
2022-04-07T00:28:40,42.805,6.029,CST-1368DR,4822,5664,12532,0.880,551
2022-04-07T00:31:42,42.805,6.029,CST-1368DR,4822,5671,12548,0.875,551
2022-04-07T00:34:43,42.805,6.029,CST-1368DR,4822,5671,12548,0.875,551
2022-04-07T00:37:45,42.805,6.029,CST-1368DR,4822,5673,12553,0.873,551
2022-04-07T00:40:46,42.805,6.029,CST-1368DR,4822,5667,12540,0.877,551
2022-04-07T00:43:48,42.805,6.029,CST-1368DR,4822,5671,12549,0.875,551
2022-04-07T00:46:49,42.805,6.029,CST-1368DR,4822,5671,12547,0.875,551
2022-04-07T00:49:51,42.805,6.029,CST-1368DR,4822,5675,12558,0.872,551
2022-04-07T00:52:53,42.805,6.029,CST-1368DR,4822,5673,12553,0.873,551
2022-04-07T00:55:54,42.805,6.029,CST-1368DR,4822,5676,12559,0.871,551
2022-04-07T00:58:56,42.805,6.029,CST-1368DR,4822,5676,12560,0.871,551
2022-04-07T01:01:57,42.805,6.029,CST-1368DR,4822,5678,12563,0.870,551
2022-04-07T01:04:59,42.805,6.029,CST-1368DR,4822,5677,12560,0.871,551
2022-04-07T01:08:00,42.805,6.029,CST-1368DR,4822,5677,12562,0.870,551
2022-04-07T01:11:02,42.805,6.029,CST-1368DR,4822,5676,12560,0.871,551
2022-04-07T01:14:04,42.805,6.029,CST-1368DR,4822,5676,12560,0.871,551
2022-04-07T01:17:05,42.805,6.029,CST-1368DR,4822,5678,12564,0.870,551
2022-04-07T01:20:07,42.805,6.029,CST-1368DR,4822,5676,12560,0.871,551
2022-04-07T01:23:08,42.805,6.029,CST-1368DR,4821,5674,12558,0.872,551
2022-04-07T01:26:10,42.805,6.029,CST-1368DR,4822,5675,12557,0.872,551
2022-04-07T01:29:12,42.805,6.029,CST-1368DR,4821,5676,12561,0.871,551
2022-04-07T01:32:13,42.805,6.029,CST-1368DR,4822,5674,12554,0.873,551
2022-04-07T01:35:15,42.805,6.029,CST-1368DR,4821,5673,12556,0.872,551
2022-04-07T01:38:16,42.805,6.029,CST-1368DR,4821,5672,12552,0.874,551
2022-04-07T01:41:18,42.805,6.029,CST-1368DR,4822,5673,12553,0.873,551
2022-04-07T01:44:19,42.805,6.029,CST-1368DR,4821,5672,12552,0.874,551
2022-04-07T01:47:21,42.805,6.029,CST-1368DR,4821,5670,12548,0.875,551
2022-04-07T01:50:23,42.805,6.029,CST-1368DR,4821,5669,12546,0.876,551
2022-04-07T01:53:24,42.805,6.029,CST-1368DR,4821,5668,12544,0.876,551
2022-04-07T01:56:26,42.805,6.029,CST-1368DR,4821,5667,12542,0.877,551
2022-04-07T01:59:27,42.805,6.029,CST-1368DR,4821,5666,12539,0.878,551
2022-04-07T02:02:29,42.805,6.029,CST-1368DR,4821,5666,12539,0.878,551
2022-04-07T02:05:31,42.805,6.029,CST-1368DR,4821,5667,12541,0.877,551
2022-04-07T02:08:32,42.805,6.029,CST-1368DR,4821,5667,12541,0.877,551
2022-04-07T02:11:34,42.805,6.029,CST-1368DR,4821,5666,12539,0.878,551
2022-04-07T02:14:35,42.805,6.029,CST-1368DR,4821,5668,12543,0.877,551
2022-04-07T02:17:37,42.805,6.029,CST-1368DR,4821,5668,12544,0.876,551
2022-04-07T02:20:38,42.805,6.029,CST-1368DR,4821,5668,12543,0.877,551
2022-04-07T02:23:40,42.805,6.029,CST-1368DR,4821,5668,12544,0.876,551
2022-04-07T02:26:42,42.805,6.029,CST-1368DR,4821,5668,12545,0.876,551
2022-04-07T02:29:43,42.805,6.029,CST-1368DR,4821,5668,12544,0.876,551
2022-04-07T02:32:45,42.805,6.029,CST-1368DR,4821,5666,12540,0.877,551
2022-04-07T02:35:46,42.805,6.029,CST-1368DR,4821,5667,12542,0.877,551
2022-04-07T02:38:48,42.805,6.029,CST-1368DR,4821,5666,12540,0.877,551
2022-04-07T02:41:49,42.805,6.029,CST-1368DR,4821,5668,12544,0.876,551
2022-04-07T02:44:51,42.805,6.029,CST-1368DR,4821,5665,12537,0.878,551
2022-04-07T02:47:53,42.805,6.029,CST-1368DR,4821,5663,12533,0.880,551
2022-04-07T02:50:54,42.805,6.029,CST-1368DR,4821,5664,12536,0.879,551
2022-04-07T02:53:56,42.805,6.029,CST-1368DR,4821,5665,12537,0.878,551
2022-04-07T02:56:57,42.805,6.029,CST-1368DR,4821,5664,12535,0.879,551
2022-04-07T02:59:59,42.805,6.029,CST-1368DR,4821,5667,12541,0.877,551
2022-04-07T03:03:01,42.805,6.029,CST-1368DR,4821,5664,12535,0.879,551
2022-04-07T03:06:02,42.805,6.029,CST-1368DR,4821,5664,12535,0.879,551
2022-04-07T03:09:04,42.805,6.029,CST-1368DR,4821,5662,12531,0.880,551
2022-04-07T03:12:05,42.805,6.029,CST-1368DR,4821,5661,12529,0.881,551
2022-04-07T03:15:07,42.805,6.029,CST-1368DR,4821,5663,12534,0.879,551
2022-04-07T03:18:08,42.805,6.029,CST-1368DR,4821,5664,12535,0.879,551
2022-04-07T03:21:10,42.805,6.029,CST-1368DR,4821,5664,12535,0.879,551
2022-04-07T03:24:12,42.805,6.029,CST-1368DR,4821,5666,12539,0.878,551
2022-04-07T03:27:13,42.805,6.029,CST-1368DR,4820,5664,12537,0.878,551
2022-04-07T03:30:15,42.805,6.029,CST-1368DR,4821,5669,12545,0.876,551
2022-04-07T03:33:16,42.805,6.029,CST-1368DR,4820,5670,12550,0.874,551
2022-04-07T03:36:18,42.805,6.029,CST-1368DR,4820,5664,12538,0.878,551
2022-04-07T03:39:20,42.805,6.029,CST-1368DR,4820,5666,12543,0.877,551
2022-04-07T03:42:21,42.805,6.029,CST-1368DR,4820,5664,12538,0.878,551
2022-04-07T03:45:23,42.805,6.029,CST-1368DR,4820,5663,12536,0.879,551
2022-04-07T03:48:24,42.805,6.029,CST-1368DR,4820,5671,12554,0.873,551
2022-04-07T03:51:26,42.805,6.029,CST-1368DR,4820,5675,12561,0.871,551
2022-04-07T03:54:27,42.805,6.029,CST-1368DR,4820,5670,12550,0.874,551
2022-04-07T03:57:29,42.805,6.029,CST-1368DR,4820,5667,12544,0.876,551
2022-04-07T04:00:31,42.805,6.029,CST-1368DR,4820,5671,12553,0.873,551
2022-04-07T04:03:32,42.805,6.029,CST-1368DR,4820,5667,12544,0.876,551
2022-04-07T04:06:34,42.805,6.029,CST-1368DR,4820,5664,12537,0.878,551
2022-04-07T04:09:35,42.805,6.029,CST-1368DR,4820,5663,12536,0.879,551
2022-04-07T04:12:37,42.805,6.029,CST-1368DR,4820,5664,12537,0.878,551
2022-04-07T04:15:38,42.805,6.029,CST-1368DR,4820,5665,12541,0.877,551
2022-04-07T04:18:40,42.805,6.029,CST-1368DR,4820,5668,12546,0.876,551
2022-04-07T04:21:42,42.805,6.029,CST-1368DR,4820,5669,12548,0.875,551
2022-04-07T04:24:43,42.805,6.029,CST-1368DR,4820,5668,12547,0.875,551
2022-04-07T04:27:45,42.805,6.029,CST-1368DR,4820,5670,12552,0.874,551
2022-04-07T04:30:46,42.805,6.029,CST-1368DR,4820,5667,12543,0.877,551
2022-04-07T04:33:48,42.805,6.029,CST-1368DR,4820,5666,12543,0.877,551
2022-04-07T04:36:50,42.805,6.029,CST-1368DR,4820,5670,12550,0.874,551
2022-04-07T04:39:51,42.805,6.029,CST-1368DR,4820,5668,12547,0.875,551
2022-04-07T04:42:53,42.805,6.029,CST-1368DR,4820,5664,12538,0.878,551
2022-04-07T04:45:54,42.805,6.029,CST-1368DR,4820,5671,12553,0.873,551
2022-04-07T04:48:56,42.805,6.029,CST-1368DR,4820,5676,12565,0.870,551
2022-04-07T04:51:57,42.805,6.029,CST-1368DR,4820,5673,12558,0.872,551
2022-04-07T04:54:59,42.805,6.029,CST-1368DR,4820,5671,12553,0.873,551
2022-04-07T04:58:01,42.805,6.029,CST-1368DR,4820,5670,12551,0.874,551
2022-04-07T05:01:02,42.805,6.029,CST-1368DR,4820,5681,12575,0.866,551
2022-04-07T05:04:04,42.805,6.029,CST-1368DR,4820,5666,12543,0.877,551
2022-04-07T05:07:05,42.805,6.029,CST-1368DR,4820,5668,12547,0.875,551
2022-04-07T05:10:07,42.805,6.029,CST-1368DR,4820,5665,12539,0.878,551
2022-04-07T05:13:08,42.805,6.029,CST-1368DR,4820,5670,12551,0.874,551
2022-04-07T05:16:10,42.805,6.029,CST-1368DR,4820,5671,12552,0.874,551
2022-04-07T05:19:12,42.805,6.029,CST-1368DR,4820,5665,12539,0.878,551
2022-04-07T05:22:13,42.805,6.029,CST-1368DR,4820,5664,12537,0.878,551
2022-04-07T05:25:15,42.805,6.029,CST-1368DR,4820,5660,12529,0.881,551
2022-04-07T05:28:16,42.805,6.029,CST-1368DR,4820,5660,12529,0.881,551
2022-04-07T05:31:18,42.805,6.029,CST-1368DR,4820,5658,12525,0.882,551
2022-04-07T05:34:20,42.805,6.029,CST-1368DR,4820,5661,12532,0.880,551
2022-04-07T05:37:21,42.805,6.029,CST-1368DR,4820,5659,12526,0.882,551
2022-04-07T05:40:23,42.805,6.029,CST-1368DR,4820,5661,12531,0.880,551
2022-04-07T05:43:24,42.805,6.029,CST-1368DR,4820,5662,12534,0.879,551
2022-04-07T05:46:26,42.805,6.029,CST-1368DR,4820,5668,12546,0.876,551
2022-04-07T05:49:27,42.805,6.029,CST-1368DR,4820,5663,12536,0.879,551
2022-04-07T05:52:29,42.805,6.029,CST-1368DR,4819,5661,12532,0.880,551
2022-04-07T05:55:31,42.805,6.029,CST-1368DR,4819,5660,12531,0.880,551
2022-04-07T05:58:32,42.805,6.029,CST-1368DR,4819,5651,12511,0.887,551
2022-04-07T06:01:34,42.805,6.029,CST-1368DR,4819,5656,12523,0.883,551
2022-04-07T06:04:35,42.805,6.029,CST-1368DR,4819,5652,12513,0.886,551
2022-04-07T06:07:37,42.805,6.029,CST-1368DR,4819,5655,12520,0.884,551
2022-04-07T06:10:39,42.805,6.029,CST-1368DR,4819,5655,12521,0.884,551
2022-04-07T06:13:40,42.805,6.029,CST-1368DR,4819,5655,12519,0.884,551
2022-04-07T06:16:42,42.805,6.029,CST-1368DR,4819,5655,12521,0.884,551
2022-04-07T06:19:43,42.805,6.029,CST-1368DR,4819,5654,12518,0.885,551
2022-04-07T06:22:45,42.805,6.029,CST-1368DR,4819,5659,12528,0.881,551
2022-04-07T06:25:46,42.805,6.029,CST-1368DR,4819,5651,12511,0.887,551
2022-04-07T06:28:48,42.805,6.029,CST-1368DR,4819,5650,12509,0.887,551
2022-04-07T06:31:50,42.805,6.029,CST-1368DR,4819,5652,12513,0.886,551
2022-04-07T06:34:51,42.805,6.029,CST-1368DR,4819,5654,12518,0.885,551
2022-04-07T06:37:53,42.805,6.029,CST-1368DR,4819,5647,12502,0.890,551
2022-04-07T06:40:54,42.805,6.029,CST-1368DR,4819,5649,12508,0.888,551
2022-04-07T06:43:56,42.805,6.029,CST-1368DR,4819,5653,12516,0.885,551
2022-04-07T06:46:57,42.805,6.029,CST-1368DR,4819,5646,12499,0.891,551
2022-04-07T06:49:59,42.805,6.029,CST-1368DR,4819,5651,12511,0.887,551
2022-04-07T06:53:01,42.805,6.029,CST-1368DR,4819,5651,12511,0.887,551
2022-04-07T06:56:02,42.805,6.029,CST-1368DR,4819,5650,12510,0.887,551
2022-04-07T06:59:04,42.805,6.029,CST-1368DR,4819,5652,12513,0.886,551
2022-04-07T07:02:05,42.805,6.029,CST-1368DR,4819,5651,12511,0.887,551
2022-04-07T07:05:07,42.805,6.029,CST-1368DR,4819,5642,12492,0.893,551
2022-04-07T07:08:09,42.805,6.029,CST-1368DR,4819,5645,12499,0.891,551
2022-04-07T07:11:10,42.805,6.029,CST-1368DR,4819,5647,12503,0.889,551
2022-04-07T07:14:12,42.805,6.029,CST-1368DR,4819,5650,12508,0.888,551
2022-04-07T07:17:13,42.805,6.029,CST-1368DR,4819,5642,12490,0.893,551
2022-04-07T07:20:15,42.805,6.029,CST-1368DR,4819,5647,12503,0.889,551
2022-04-07T07:23:16,42.805,6.029,CST-1368DR,4819,5653,12516,0.885,551
2022-04-07T07:26:18,42.805,6.029,CST-1368DR,4819,5640,12487,0.894,551
2022-04-07T07:29:20,42.805,6.029,CST-1368DR,4819,5653,12516,0.885,551
2022-04-07T07:32:21,42.805,6.029,CST-1368DR,4819,5656,12523,0.883,551
2022-04-07T07:35:23,42.805,6.029,CST-1368DR,4819,5646,12500,0.890,551
2022-04-07T07:38:24,42.805,6.029,CST-1368DR,4819,5652,12514,0.886,551
2022-04-07T07:41:26,42.805,6.029,CST-1368DR,4819,5654,12519,0.884,551
2022-04-07T07:44:28,42.805,6.029,CST-1368DR,4819,5650,12509,0.887,551
2022-04-07T07:47:29,42.805,6.029,CST-1368DR,4819,5651,12511,0.887,551
2022-04-07T07:50:31,42.805,6.029,CST-1368DR,4819,5648,12505,0.889,551
2022-04-07T07:53:32,42.805,6.029,CST-1368DR,4819,5654,12519,0.884,551
2022-04-07T07:56:34,42.805,6.029,CST-1368DR,4819,5655,12521,0.884,551
2022-04-07T07:59:35,42.805,6.029,CST-1368DR,4819,5654,12517,0.885,551
2022-04-07T08:02:37,42.805,6.029,CST-1368DR,4819,5656,12521,0.884,551
2022-04-07T08:05:39,42.805,6.029,CST-1368DR,4819,5648,12505,0.889,551
2022-04-07T08:08:40,42.805,6.029,CST-1368DR,4819,5649,12508,0.888,551
2022-04-07T08:11:42,42.805,6.029,CST-1368DR,4819,5651,12512,0.886,551
2022-04-07T08:14:43,42.805,6.029,CST-1368DR,4819,5654,12517,0.885,551
2022-04-07T08:17:45,42.805,6.029,CST-1368DR,4819,5650,12508,0.888,551
2022-04-07T08:20:46,42.805,6.029,CST-1368DR,4819,5650,12510,0.887,551
2022-04-07T08:23:48,42.805,6.029,CST-1368DR,4818,5653,12518,0.885,551
2022-04-07T08:26:50,42.805,6.029,CST-1368DR,4818,5652,12516,0.885,551
2022-04-07T08:29:51,42.805,6.029,CST-1368DR,4818,5646,12502,0.890,551
2022-04-07T08:32:53,42.805,6.029,CST-1368DR,4819,5660,12531,0.880,551
2022-04-07T08:35:54,42.805,6.029,CST-1368DR,4819,5658,12526,0.882,551
2022-04-07T08:38:56,42.805,6.029,CST-1368DR,4819,5654,12518,0.885,551
2022-04-07T08:41:58,42.805,6.029,CST-1368DR,4818,5652,12515,0.885,551
2022-04-07T08:44:59,42.805,6.029,CST-1368DR,4819,5659,12529,0.881,551
2022-04-07T08:48:01,42.805,6.029,CST-1368DR,4818,5652,12516,0.885,551
2022-04-07T08:51:02,42.805,6.029,CST-1368DR,4818,5653,12518,0.885,551
2022-04-07T08:54:04,42.805,6.029,CST-1368DR,4818,5656,12525,0.882,551
2022-04-07T08:57:05,42.805,6.029,CST-1368DR,4818,5652,12516,0.885,551
2022-04-07T09:00:07,42.805,6.029,CST-1368DR,4818,5656,12526,0.882,551
2022-04-07T09:03:09,42.805,6.029,CST-1368DR,4818,5651,12513,0.886,551
2022-04-07T09:06:10,42.805,6.029,CST-1368DR,4818,5648,12506,0.888,551
2022-04-07T09:09:12,42.805,6.029,CST-1368DR,4818,5651,12514,0.886,551
2022-04-07T09:12:13,42.805,6.029,CST-1368DR,4818,5655,12523,0.883,551
2022-04-07T09:15:15,42.805,6.029,CST-1368DR,4818,5657,12527,0.882,551
2022-04-07T09:18:16,42.805,6.029,CST-1368DR,4818,5655,12522,0.883,551
2022-04-07T09:21:18,42.805,6.029,CST-1368DR,4818,5654,12521,0.884,551
2022-04-07T09:24:20,42.805,6.029,CST-1368DR,4818,5654,12521,0.884,551
2022-04-07T09:27:21,42.805,6.029,CST-1368DR,4818,5660,12534,0.879,551
2022-04-07T09:30:23,42.805,6.029,CST-1368DR,4818,5655,12522,0.883,551
2022-04-07T09:33:24,42.805,6.029,CST-1368DR,4818,5661,12536,0.879,551
2022-04-07T09:36:26,42.805,6.029,CST-1368DR,4818,5659,12531,0.880,551
2022-04-07T09:39:28,42.805,6.029,CST-1368DR,4818,5657,12528,0.881,551
2022-04-07T09:42:29,42.805,6.029,CST-1368DR,4818,5656,12524,0.883,551
2022-04-07T09:45:31,42.805,6.029,CST-1368DR,4818,5657,12527,0.882,551
2022-04-07T09:48:32,42.805,6.029,CST-1368DR,4818,5664,12542,0.877,551
2022-04-07T09:55:07,42.805,6.029,CST-1368DR,4818,5662,12539,0.878,551
2022-04-07T09:58:08,42.805,6.029,CST-1368DR,4818,5657,12528,0.881,551
2022-04-07T10:01:10,42.805,6.029,CST-1368DR,4818,5655,12523,0.883,551
2022-04-07T10:04:11,42.805,6.029,CST-1368DR,4818,5659,12532,0.880,551
2022-04-07T10:07:13,42.805,6.029,CST-1368DR,4818,5659,12531,0.880,551
2022-04-07T10:10:15,42.805,6.029,CST-1368DR,4818,5654,12520,0.884,551
2022-04-07T10:13:16,42.805,6.029,CST-1368DR,4818,5662,12539,0.878,551
2022-04-07T10:16:18,42.805,6.029,CST-1368DR,4818,5657,12528,0.881,551
2022-04-07T10:19:19,42.805,6.029,CST-1368DR,4818,5660,12534,0.879,551
2022-04-07T10:22:21,42.805,6.029,CST-1368DR,4818,5663,12540,0.877,551
2022-04-07T10:25:23,42.805,6.029,CST-1368DR,4818,5665,12544,0.876,551
2022-04-07T10:28:24,42.805,6.029,CST-1368DR,4818,5660,12533,0.880,551
2022-04-07T10:31:26,42.805,6.029,CST-1368DR,4818,5657,12526,0.882,551
2022-04-07T10:34:27,42.805,6.029,CST-1368DR,4818,5661,12536,0.879,551
2022-04-07T10:37:29,42.805,6.029,CST-1368DR,4818,5657,12528,0.881,551
2022-04-07T10:40:30,42.805,6.029,CST-1368DR,4818,5662,12537,0.878,551
2022-04-07T10:43:32,42.805,6.029,CST-1368DR,4818,5659,12531,0.880,551
2022-04-07T10:46:34,42.805,6.029,CST-1368DR,4818,5658,12529,0.881,551
2022-04-07T10:49:35,42.805,6.029,CST-1368DR,4818,5655,12523,0.883,551
2022-04-07T10:52:37,42.805,6.029,CST-1368DR,4818,5662,12538,0.878,550
2022-04-07T10:55:38,42.805,6.029,CST-1368DR,4818,5658,12528,0.881,551
2022-04-07T10:58:40,42.805,6.029,CST-1368DR,4818,5662,12538,0.878,551
2022-04-07T11:01:41,42.805,6.029,CST-1368DR,4818,5659,12531,0.880,551
2022-04-07T11:04:43,42.805,6.029,CST-1368DR,4818,5661,12536,0.879,551
2022-04-07T11:07:45,42.805,6.029,CST-1368DR,4818,5659,12531,0.880,551
2022-04-07T11:10:46,42.805,6.029,CST-1368DR,4818,5662,12539,0.878,551
2022-04-07T11:13:48,42.805,6.029,CST-1368DR,4818,5664,12543,0.877,551
2022-04-07T11:16:49,42.805,6.029,CST-1368DR,4818,5659,12532,0.880,551
2022-04-07T11:19:51,42.805,6.029,CST-1368DR,4818,5664,12542,0.877,551
2022-04-07T11:22:53,42.805,6.029,CST-1368DR,4818,5662,12539,0.878,551
2022-04-07T11:25:54,42.805,6.029,CST-1368DR,4818,5663,12540,0.877,551
2022-04-07T11:28:56,42.805,6.029,CST-1368DR,4818,5660,12534,0.879,551
2022-04-07T11:31:57,42.805,6.029,CST-1368DR,4818,5661,12535,0.879,551
2022-04-07T11:34:59,42.805,6.029,CST-1368DR,4818,5661,12536,0.879,551
2022-04-07T11:38:00,42.805,6.029,CST-1368DR,4818,5660,12533,0.880,551
2022-04-07T11:41:02,42.805,6.029,CST-1368DR,4818,5660,12534,0.879,551
2022-04-07T11:44:04,42.805,6.029,CST-1368DR,4818,5665,12544,0.876,551
2022-04-07T11:47:05,42.805,6.029,CST-1368DR,4818,5666,12548,0.875,551
2022-04-07T11:50:07,42.805,6.029,CST-1368DR,4818,5660,12534,0.879,551
2022-04-07T11:53:08,42.805,6.029,CST-1368DR,4818,5663,12541,0.877,551
2022-04-07T11:56:10,42.805,6.029,CST-1368DR,4818,5667,12549,0.875,551
2022-04-07T11:59:11,42.805,6.029,CST-1368DR,4818,5673,12563,0.870,551
2022-04-07T12:02:13,42.805,6.029,CST-1368DR,4818,5665,12545,0.876,551
2022-04-07T12:05:15,42.805,6.029,CST-1368DR,4817,5654,12523,0.883,551
2022-04-07T12:08:16,42.805,6.029,CST-1368DR,4817,5660,12537,0.878,551
2022-04-07T12:11:18,42.805,6.029,CST-1368DR,4817,5662,12541,0.877,551
2022-04-07T12:14:19,42.805,6.029,CST-1368DR,4818,5661,12537,0.878,551
2022-04-07T12:17:21,42.805,6.029,CST-1368DR,4818,5662,12537,0.878,551
2022-04-07T12:20:23,42.805,6.029,CST-1368DR,4817,5660,12536,0.879,551
2022-04-07T12:23:24,42.805,6.029,CST-1368DR,4817,5663,12543,0.877,551
2022-04-07T12:26:26,42.805,6.029,CST-1368DR,4817,5661,12538,0.878,551
2022-04-07T12:29:27,42.805,6.029,CST-1368DR,4817,5662,12541,0.877,551
2022-04-07T12:32:29,42.805,6.029,CST-1368DR,4817,5664,12544,0.876,551
2022-04-07T12:35:30,42.805,6.029,CST-1368DR,4817,5664,12545,0.876,551
2022-04-07T12:38:32,42.805,6.029,CST-1368DR,4817,5662,12540,0.877,551
2022-04-07T12:41:34,42.805,6.029,CST-1368DR,4817,5662,12540,0.877,551
2022-04-07T12:44:35,42.805,6.029,CST-1368DR,4817,5662,12540,0.877,551
2022-04-07T12:47:37,42.805,6.029,CST-1368DR,4817,5660,12537,0.878,551
2022-04-07T12:50:38,42.805,6.029,CST-1368DR,4817,5660,12535,0.879,551
2022-04-07T12:53:40,42.805,6.029,CST-1368DR,4817,5661,12539,0.878,551
2022-04-07T12:56:41,42.805,6.029,CST-1368DR,4817,5660,12535,0.879,551
2022-04-07T12:59:43,42.805,6.029,CST-1368DR,4817,5660,12535,0.879,551
2022-04-07T13:02:45,42.805,6.029,CST-1368DR,4817,5666,12549,0.875,551
2022-04-07T13:10:07,42.805,6.029,CST-1368DR,4817,5661,12537,0.878,551
2022-04-07T13:13:08,42.805,6.029,CST-1368DR,4817,5659,12534,0.879,551
2022-04-07T13:16:10,42.805,6.029,CST-1368DR,4817,5664,12544,0.876,551
2022-04-07T13:19:11,42.805,6.029,CST-1368DR,4817,5657,12530,0.881,551
2022-04-07T13:22:13,42.805,6.029,CST-1368DR,4817,5659,12533,0.880,551
2022-04-07T13:25:15,42.805,6.029,CST-1368DR,4817,5659,12534,0.879,551
2022-04-07T13:28:16,42.805,6.029,CST-1368DR,4817,5660,12536,0.879,551
2022-04-07T13:31:18,42.805,6.029,CST-1368DR,4817,5663,12544,0.876,551
2022-04-07T13:34:19,42.805,6.029,CST-1368DR,4817,5661,12539,0.878,551
2022-04-07T13:37:21,42.805,6.029,CST-1368DR,4817,5657,12529,0.881,551
2022-04-07T13:40:22,42.805,6.029,CST-1368DR,4817,5658,12531,0.880,551
2022-04-07T13:43:24,42.805,6.029,CST-1368DR,4817,5664,12545,0.876,551
2022-04-07T13:46:26,42.805,6.029,CST-1368DR,4817,5667,12551,0.874,551
2022-04-07T13:49:27,42.805,6.029,CST-1368DR,4817,5664,12545,0.876,551
2022-04-07T13:52:29,42.805,6.029,CST-1368DR,4817,5659,12534,0.879,551
2022-04-07T13:55:30,42.805,6.029,CST-1368DR,4817,5667,12551,0.874,551
2022-04-07T13:58:32,42.805,6.029,CST-1368DR,4817,5671,12560,0.871,551
2022-04-07T14:01:34,42.805,6.029,CST-1368DR,4817,5674,12567,0.869,551
2022-04-07T14:04:35,42.805,6.029,CST-1368DR,4817,5663,12542,0.877,551
2022-04-07T14:07:37,42.805,6.029,CST-1368DR,4817,5664,12544,0.876,551
2022-04-07T14:10:38,42.805,6.029,CST-1368DR,4817,5662,12540,0.877,551
2022-04-07T14:13:40,42.805,6.029,CST-1368DR,4817,5672,12562,0.870,551
2022-04-07T14:16:41,42.805,6.029,CST-1368DR,4817,5654,12524,0.883,551
2022-04-07T14:19:43,42.805,6.029,CST-1368DR,4817,5662,12541,0.877,551
2022-04-07T14:22:45,42.805,6.029,CST-1368DR,4817,5660,12536,0.879,551
2022-04-07T14:25:46,42.805,6.029,CST-1368DR,4817,5658,12532,0.880,551
2022-04-07T14:28:48,42.805,6.029,CST-1368DR,4817,5657,12530,0.881,551
2022-04-07T14:31:49,42.805,6.029,CST-1368DR,4817,5659,12534,0.879,551
2022-04-07T14:34:51,42.805,6.029,CST-1368DR,4817,5660,12536,0.879,551
2022-04-07T14:37:52,42.805,6.029,CST-1368DR,4817,5660,12537,0.878,551
2022-04-07T14:40:54,42.805,6.029,CST-1368DR,4817,5655,12526,0.882,551
2022-04-07T14:43:56,42.805,6.029,CST-1368DR,4817,5662,12541,0.877,551
2022-04-07T14:46:57,42.805,6.029,CST-1368DR,4817,5659,12533,0.880,551
2022-04-07T14:49:59,42.805,6.029,CST-1368DR,4817,5659,12534,0.879,551
2022-04-07T14:53:00,42.805,6.029,CST-1368DR,4817,5655,12524,0.883,551
2022-04-07T14:56:02,42.805,6.029,CST-1368DR,4817,5659,12534,0.879,551
2022-04-07T14:59:04,42.805,6.029,CST-1368DR,4817,5660,12535,0.879,551
2022-04-07T15:02:05,42.805,6.029,CST-1368DR,4817,5662,12541,0.877,551
2022-04-07T15:05:07,42.805,6.029,CST-1368DR,4817,5660,12536,0.879,551
2022-04-07T15:08:08,42.805,6.029,CST-1368DR,4817,5657,12530,0.881,551
2022-04-07T15:11:10,42.805,6.029,CST-1368DR,4817,5657,12529,0.881,551
2022-04-07T15:14:11,42.805,6.029,CST-1368DR,4817,5655,12526,0.882,551
2022-04-07T15:17:13,42.805,6.029,CST-1368DR,4817,5654,12524,0.883,551
2022-04-07T15:20:15,42.805,6.029,CST-1368DR,4817,5657,12529,0.881,551
2022-04-07T15:23:16,42.805,6.029,CST-1368DR,4817,5652,12519,0.884,551
2022-04-07T15:26:18,42.805,6.029,CST-1368DR,4817,5651,12517,0.885,551
2022-04-07T15:29:19,42.805,6.029,CST-1368DR,4817,5653,12521,0.884,551
2022-04-07T15:32:21,42.805,6.029,CST-1368DR,4817,5650,12514,0.886,551
2022-04-07T15:35:23,42.805,6.029,CST-1368DR,4817,5656,12526,0.882,551
2022-04-07T15:38:24,42.805,6.029,CST-1368DR,4817,5654,12524,0.883,551
2022-04-07T15:41:26,42.805,6.029,CST-1368DR,4817,5652,12519,0.884,551
2022-04-07T15:44:27,42.805,6.029,CST-1368DR,4817,5655,12525,0.882,551
2022-04-07T15:47:29,42.805,6.029,CST-1368DR,4817,5656,12528,0.881,551
2022-04-07T15:50:30,42.805,6.029,CST-1368DR,4817,5655,12525,0.882,551
2022-04-07T15:53:32,42.805,6.029,CST-1368DR,4817,5652,12519,0.884,551
2022-04-07T15:56:34,42.805,6.029,CST-1368DR,4817,5654,12524,0.883,551
2022-04-07T15:59:35,42.805,6.029,CST-1368DR,4817,5657,12529,0.881,551
2022-04-07T16:02:37,42.805,6.029,CST-1368DR,4817,5654,12524,0.883,551
2022-04-07T16:05:38,42.805,6.029,CST-1368DR,4816,5651,12519,0.884,551
2022-04-07T16:08:40,42.805,6.029,CST-1368DR,4817,5655,12524,0.883,551
2022-04-07T16:11:41,42.805,6.029,CST-1368DR,4817,5655,12526,0.882,551
2022-04-07T16:14:43,42.805,6.029,CST-1368DR,4817,5657,12529,0.881,551
2022-04-07T16:17:45,42.805,6.029,CST-1368DR,4817,5654,12522,0.883,551
2022-04-07T16:20:46,42.805,6.029,CST-1368DR,4817,5652,12519,0.884,551
2022-04-07T16:23:48,42.805,6.029,CST-1368DR,4817,5653,12521,0.884,551
2022-04-07T16:26:49,42.805,6.029,CST-1368DR,4816,5652,12522,0.883,551
2022-04-07T16:29:51,42.805,6.029,CST-1368DR,4817,5654,12523,0.883,551
2022-04-07T16:32:53,42.805,6.029,CST-1368DR,4816,5654,12524,0.883,551
2022-04-07T16:35:54,42.805,6.029,CST-1368DR,4816,5654,12525,0.882,551
2022-04-07T16:38:56,42.805,6.029,CST-1368DR,4817,5656,12526,0.882,551
2022-04-07T16:41:57,42.805,6.029,CST-1368DR,4816,5653,12524,0.883,551
2022-04-07T16:44:59,42.805,6.029,CST-1368DR,4816,5654,12525,0.882,551
2022-04-07T16:48:00,42.805,6.029,CST-1368DR,4816,5651,12518,0.885,551
2022-04-07T16:51:02,42.805,6.029,CST-1368DR,4816,5656,12530,0.881,551
2022-04-07T16:54:04,42.805,6.029,CST-1368DR,4816,5658,12533,0.880,551
2022-04-07T16:57:05,42.805,6.029,CST-1368DR,4816,5651,12519,0.884,551
2022-04-07T17:00:07,42.805,6.029,CST-1368DR,4816,5652,12522,0.883,551